TimeAKDT,TemperatureF,Dew PointF,Humidity,Sea Level PressureIn,VisibilityMPH,Wind Direction,Wind SpeedMPH,Gust SpeedMPH,PrecipitationIn,Events,Conditions,WindDirDegrees,DateUTC
12:16 AM,6.8,3.2,85,30.18,10.0,Calm,Calm,-,N/A,,Mostly Cloudy,0,2012-11-02 08:16:00
12:36 AM,6.8,1.4,79,30.18,10.0,Calm,Calm,-,N/A,,Overcast,0,2012-11-02 08:36:00
12:56 AM,6.8,1.4,79,30.17,10.0,Calm,Calm,-,N/A,,Scattered Clouds,0,2012-11-02 08:56:00
1:16 AM,6.8,1.4,79,30.17,10.0,Calm,Calm,-,N/A,,Mostly Cloudy,0,2012-11-02 09:16:00
1:36 AM,8.6,1.4,73,30.16,10.0,North,4.6,-,N/A,,Overcast,350,2012-11-02 09:36:00
1:56 AM,6.8,1.4,79,30.15,10.0,Calm,Calm,-,N/A,,Overcast,0,2012-11-02 09:56:00
2:16 AM,6.8,1.4,79,30.14,10.0,NW,3.5,-,N/A,,Overcast,320,2012-11-02 10:16:00
2:36 AM,6.8,1.4,79,30.14,10.0,West,4.6,-,N/A,,Overcast,270,2012-11-02 10:36:00
2:56 AM,6.8,1.4,79,30.14,10.0,West,3.5,-,N/A,,Mostly Cloudy,270,2012-11-02 10:56:00
3:16 AM,6.8,1.4,79,30.13,10.0,West,4.6,-,N/A,,Mostly Cloudy,280,2012-11-02 11:16:00
3:36 AM,6.8,1.4,79,30.12,10.0,WNW,5.8,-,N/A,,Mostly Cloudy,290,2012-11-02 11:36:00
3:56 AM,8.6,1.4,73,30.12,10.0,WNW,5.8,-,N/A,,Mostly Cloudy,290,2012-11-02 11:56:00
4:16 AM,8.6,3.2,79,30.11,10.0,WNW,8.1,-,N/A,,Overcast,290,2012-11-02 12:16:00
4:36 AM,8.6,1.4,73,30.10,10.0,Calm,Calm,-,N/A,,Overcast,0,2012-11-02 12:36:00
4:56 AM,8.6,1.4,73,30.10,10.0,Calm,Calm,-,N/A,,Scattered Clouds,0,2012-11-02 12:56:00
5:16 AM,6.8,1.4,79,30.09,10.0,West,5.8,-,N/A,,Mostly Cloudy,280,2012-11-02 13:16:00
5:36 AM,6.8,1.4,79,30.09,10.0,NW,3.5,-,N/A,,Mostly Cloudy,310,2012-11-02 13:36:00
5:56 AM,5.0,-0.4,78,30.08,10.0,Calm,Calm,-,N/A,,Partly Cloudy,0,2012-11-02 13:56:00
6:16 AM,5.0,-0.4,78,30.07,10.0,Calm,Calm,-,N/A,,Clear,0,2012-11-02 14:16:00
6:36 AM,3.2,-0.4,85,30.07,10.0,West,3.5,-,N/A,,Clear,260,2012-11-02 14:36:00
6:56 AM,3.2,-2.2,78,30.07,10.0,West,6.9,-,N/A,,Partly Cloudy,270,2012-11-02 14:56:00
7:16 AM,3.2,-0.4,85,30.07,10.0,West,3.5,-,N/A,,Mostly Cloudy,270,2012-11-02 15:16:00
7:36 AM,5.0,-0.4,78,30.06,10.0,Calm,Calm,-,N/A,,Mostly Cloudy,0,2012-11-02 15:36:00
7:56 AM,5.0,1.4,85,30.05,10.0,NW,3.5,-,N/A,,Partly Cloudy,310,2012-11-02 15:56:00
8:16 AM,6.8,1.4,79,30.05,10.0,Calm,Calm,-,N/A,,Clear,0,2012-11-02 16:16:00
8:36 AM,15.8,10.4,79,30.04,10.0,NNE,9.2,-,N/A,,Clear,30,2012-11-02 16:36:00
8:56 AM,17.6,8.6,68,30.03,10.0,North,11.5,19.6,N/A,,Clear,10,2012-11-02 16:56:00
9:16 AM,17.6,6.8,63,30.03,10.0,North,8.1,-,N/A,,Clear,360,2012-11-02 17:16:00
9:36 AM,17.6,6.8,63,30.01,10.0,North,17.3,28.8,N/A,,Clear,10,2012-11-02 17:36:00
9:56 AM,17.6,6.8,63,30.02,10.0,North,15.0,26.5,N/A,,Clear,10,2012-11-02 17:56:00
10:16 AM,17.6,6.8,63,30.02,10.0,North,16.1,25.3,N/A,,Clear,10,2012-11-02 18:16:00
10:36 AM,17.6,5.0,58,30.01,10.0,North,13.8,24.2,N/A,,Clear,10,2012-11-02 18:36:00
10:56 AM,17.6,5.0,58,30.00,10.0,North,19.6,33.4,N/A,,Clear,10,2012-11-02 18:56:00
11:16 AM,17.6,3.2,53,30.01,10.0,North,16.1,31.1,N/A,,Clear,360,2012-11-02 19:16:00
11:36 AM,17.6,3.2,53,30.01,10.0,North,19.6,32.2,N/A,,Clear,10,2012-11-02 19:36:00
11:56 AM,17.6,3.2,53,30.01,10.0,North,20.7,28.8,N/A,,Clear,10,2012-11-02 19:56:00
12:16 PM,17.6,3.2,53,30.01,10.0,NNE,19.6,29.9,N/A,,Clear,20,2012-11-02 20:16:00
12:36 PM,17.6,3.2,53,30.01,10.0,North,25.3,32.2,N/A,,Clear,10,2012-11-02 20:36:00
12:56 PM,17.6,1.4,49,30.02,10.0,North,19.6,31.1,N/A,,Clear,10,2012-11-02 20:56:00
1:16 PM,17.6,1.4,49,30.01,10.0,North,15.0,24.2,N/A,,Clear,10,2012-11-02 21:16:00
1:36 PM,17.6,1.4,49,30.01,10.0,North,15.0,25.3,N/A,,Clear,350,2012-11-02 21:36:00
1:56 PM,17.6,1.4,49,30.00,10.0,North,10.4,21.9,N/A,,Clear,10,2012-11-02 21:56:00
2:16 PM,17.6,1.4,49,30.00,10.0,North,13.8,21.9,N/A,,Clear,360,2012-11-02 22:16:00
2:36 PM,17.6,1.4,49,29.99,10.0,North,13.8,21.9,N/A,,Clear,10,2012-11-02 22:36:00
2:56 PM,17.6,1.4,49,29.98,10.0,North,16.1,29.9,N/A,,Clear,360,2012-11-02 22:56:00
3:16 PM,17.6,1.4,49,29.97,10.0,NNE,17.3,29.9,N/A,,Clear,20,2012-11-02 23:16:00
3:36 PM,17.6,1.4,49,29.95,10.0,NNE,15.0,31.1,N/A,,Clear,20,2012-11-02 23:36:00
3:56 PM,15.8,1.4,53,29.94,10.0,North,18.4,35.7,N/A,,Clear,10,2012-11-02 23:56:00
4:16 PM,15.8,-0.4,49,29.95,10.0,North,18.4,28.8,N/A,,Clear,10,2012-11-03 00:16:00
4:36 PM,15.8,-0.4,49,29.96,10.0,NNE,15.0,26.5,N/A,,Clear,20,2012-11-03 00:36:00
4:56 PM,15.8,-0.4,49,29.95,10.0,North,23.0,32.2,N/A,,Clear,10,2012-11-03 00:56:00
5:16 PM,15.8,-0.4,49,29.96,10.0,NNE,19.6,32.2,N/A,,Clear,20,2012-11-03 01:16:00
5:36 PM,15.8,-0.4,49,29.97,10.0,North,17.3,33.4,N/A,,Clear,10,2012-11-03 01:36:00
5:56 PM,15.8,-2.2,45,29.97,10.0,North,16.1,25.3,N/A,,Clear,10,2012-11-03 01:56:00
6:16 PM,15.8,-2.2,45,29.97,10.0,North,13.8,25.3,N/A,,Clear,10,2012-11-03 02:16:00
6:36 PM,14.0,-2.2,49,29.97,10.0,North,13.8,23.0,N/A,,Clear,10,2012-11-03 02:36:00
6:56 PM,14.0,-2.2,49,29.98,10.0,North,13.8,28.8,N/A,,Clear,360,2012-11-03 02:56:00
7:16 PM,14.0,-2.2,49,29.97,10.0,North,13.8,23.0,N/A,,Clear,360,2012-11-03 03:16:00
7:36 PM,15.8,-2.2,45,29.96,10.0,North,9.2,23.0,N/A,,Clear,360,2012-11-03 03:36:00
7:56 PM,15.8,-2.2,45,29.96,10.0,North,15.0,24.2,N/A,,Clear,360,2012-11-03 03:56:00
8:16 PM,15.8,-2.2,45,29.96,10.0,North,13.8,23.0,N/A,,Clear,360,2012-11-03 04:16:00
8:36 PM,15.8,-2.2,45,29.97,10.0,North,11.5,20.7,N/A,,Clear,10,2012-11-03 04:36:00
8:56 PM,14.0,-2.2,49,29.97,10.0,North,15.0,26.5,N/A,,Clear,10,2012-11-03 04:56:00
9:16 PM,14.0,-2.2,49,29.97,10.0,North,13.8,29.9,N/A,,Clear,10,2012-11-03 05:16:00
9:36 PM,14.0,-2.2,49,29.97,10.0,North,16.1,28.8,N/A,,Clear,10,2012-11-03 05:36:00
9:56 PM,14.0,-2.2,49,29.97,10.0,North,17.3,24.2,N/A,,Clear,10,2012-11-03 05:56:00
10:16 PM,14.0,-2.2,49,29.98,10.0,North,6.9,23.0,N/A,,Clear,10,2012-11-03 06:16:00
10:36 PM,12.2,-2.2,53,29.99,10.0,NNE,11.5,23.0,N/A,,Clear,20,2012-11-03 06:36:00
11:16 PM,12.2,-2.2,53,29.99,10.0,North,13.8,26.5,N/A,,Clear,10,2012-11-03 07:16:00
11:36 PM,12.2,-4.0,48,29.99,10.0,North,15.0,24.2,N/A,,Clear,10,2012-11-03 07:36:00
11:56 PM,12.2,-4.0,48,30.00,10.0,North,10.4,24.2,N/A,,Clear,360,2012-11-03 07:56:00